Regional Weather Roundup
Issued by NWS

Home | Current Version | Previous Version | Text Only | Print | Product List | Glossary Off
Versions: 1 2 3 4 5 6 7 8 9 10 11 12 13 14 15 16 17 18 19 20 21 22 23 24 25 26 27 28 29 30 31 32 33 34 35 36 37 38 39 40 41 42 43 44 45 46 47 48 49 50

000
ASUS43 KBIS 291702
RWRND

NORTH DAKOTA REGIONAL WEATHER ROUNDUP
NATIONAL WEATHER SERVICE BISMARCK ND
1200 PM CDT WED MAR 29 2017

NOTE: "FAIR" INDICATES FEW OR NO CLOUDS BELOW 12,000 FEET WITH NO
SIGNIFICANT WEATHER AND/OR OBSTRUCTIONS TO VISIBILITY.


NDZ001>003-009>011-017-291800-
NORTHWEST NORTH DAKOTA

CITY           SKY/WX    TMP DP  RH WIND       PRES   REMARKS
WILLISTON      FAIR      51  41  68 S12       29.99F
MINOT          PTSUNNY   54  43  66 S12       30.02F
MINOT AFB      CLOUDY    50  44  79 SW9       30.01F
$$

NDZ018>021-031>035-040>046-291800-
SOUTHWEST NORTH DAKOTA

CITY           SKY/WX    TMP DP  RH WIND       PRES   REMARKS
BISMARCK       FAIR      57  41  55 S7        30.10F
DICKINSON      FAIR      48  42  80 S12       30.04F
GARRISON         N/A     51  42  71 S9        30.05F
HETTINGER ARPT MOSUNNY   51  41  68 SW9       30.08F
$$

NDZ004>008-012>016-024-026-027-054-291800-
NORTHEAST NORTH DAKOTA

CITY           SKY/WX    TMP DP  RH WIND       PRES   REMARKS
GRAND FORKS    CLOUDY    50  41  71 S9        30.14F
GRND FRKS AFB  SUNNY     53  42  67 SE7       30.13F
DEVILS LAKE    FAIR      52  39  61 SW12      30.10F
$$

NDZ022-023-025-028>030-036>039-047>053-291800-
SOUTHEAST NORTH DAKOTA

CITY           SKY/WX    TMP DP  RH WIND       PRES   REMARKS
FARGO          CLOUDY    55  38  52 S13       30.15F
JAMESTOWN      FAIR      56  41  57 S12       30.11F
$$





USA.gov is the U.S. government's official web portal to all federal, state and local government web resources and services.